STARLINK-4592, 53634

Orbit data source: Space-Track

STARLINK-4592, 53634 is a payload satellite owned by SpaceX/Seattle (US) in LEO that was launched on Sun, 28 Aug 2022 UTC via an FALCON 9 launch vehicle from the Air Force Eastern Test Range (AFETR). Payload-class satellites include a variety of spacecraft equipped with specific instruments for various scientific and technological missions. These include communications satellites like Starlink; space stations such as the ISS; scientific satellites like the Hubble; Earth observation satellites from companies like Planet Labs, Umbra, and HawkEye 360; GPS; miniature CubeSats for education and research; and military/defense satellites.

Loading next visibility...
Identifier
53634, 2022-104AY
Orbit
LEO
Country
Flag of USUS
Related business
Manufacturer
SpaceX/Seattle
Mission
Operational Commercial Communications
Bus & Motor
STARLINK, Unknown motor
Mass
300 kg wet, ~290 kg dry
Launch date (UTC)
2022-08-28 (3 years ago)
Launch vehicle
FALCON 9
Launch site
Air Force Eastern Test Range (AFETR)
Object type
Payload
Rocket body
Debris
Shape & HBR
Box + 1 Pan, 10.1 m
Radar Cross Section
13.562 m², Large (>1 m²)

Expand to show TLE details & history
Last TLE update: 17 hours ago

TLE from 17 hours ago
0 STARLINK-4592
1 53634U 22104AY  25286.94829672  .00000544  00000-0  52241-4 0  9991
2 53634  53.2137 162.7722 0001479  93.3718 266.7443 15.08839970174074
Epoch: 2025-10-13T22:45Z
TLE epoch observation values (Epoch: 2025-10-13T22:45:32.836Z)
Latitude
-0.00005°
Longitude
158.64159°
Altitude
540.699 km
Speed
7.593 km/s
True Right ascension
10h 51m 05s
True Declination
0° 00' 00"
Sunlit
Object was in daylight at epoch
Visualization orbit readout
Latitude
Unknown
Longitude
Unknown
Altitude
Unknown
Speed
Unknown
Apparent Right ascension
Unknown
Apparent Declination
Unknown
Sunlit
N/A
Visualization observer readout
Local Sidereal Time
10:00:04
Azimuth
Unknown
Elevation
Unknown
Doppler factor
Unknown
Orbital elements
Apogee altitude
541.012 km
Perigee altitude
538.966 km
Semi-major axis
6,918.126 km
Eccentricity
0.00015
Inclination
53.2137°
RAAN
162.7722°
Arg. of periapsis
93.3718°
True anomaly
266.72738°
Mean anomaly
266.7443°
Eccentric anomaly
266.73584°
Mean motion
3.7719 °/min
Orbital period
95.44 mins
BSTAR
0.000052241
Loading maneuver chart data...
Computing Atmospheric mass density...
Loading historical data...
Loading historical data...
Loading historical data...
Loading historical data...
Loading historical data...
Loading historical data...
Loading historical data...

Documentation

Showing up to 5 results
|